| time (UTC) | temp C | wind direction | speed KPH | gust KPH | rain 1hr cm | rain 24hr cm | rain mn cm | humidity % | barometer mb |
| 20260502170150 | 10 | 0 | 0.0 | 8.0 | 0.00 | 0.00 | 0.00 | 88 | 1016.5 |
| 20260502164058 | 10 | 303 | 1.6 | 12.9 | 0.00 | 0.00 | 0.00 | 88 | 1016.6 |
| 20260502163545 | 10 | 0 | 0.0 | 12.9 | 0.00 | 0.00 | 0.00 | 88 | 1016.6 |
| 20260502163032 | 10 | 47 | 0.0 | 11.3 | 0.00 | 0.00 | 0.00 | 88 | 1016.6 |
| 20260502162519 | 10 | 0 | 0.0 | 0.0 | 0.00 | 0.00 | 0.00 | 88 | 1016.7 |
| 20260502161453 | 10 | 0 | 0.0 | 0.0 | 0.00 | 0.00 | 0.00 | 88 | 1016.7 |
| 20260502160940 | 10 | 0 | 0.0 | 0.0 | 0.00 | 0.00 | 0.00 | 88 | 1016.6 |
| 20260502160427 | 10 | 0 | 0.0 | 16.1 | 0.00 | 0.00 | 0.00 | 88 | 1016.6 |
| 20260502152243 | 10 | 312 | 0.0 | 9.7 | 0.00 | 0.00 | 0.00 | 87 | 1016.8 |
| 20260502151729 | 10 | 60 | 0.0 | 8.0 | 0.00 | 0.00 | 0.00 | 87 | 1016.8 |
| 20260502151217 | 10 | 0 | 0.0 | 0.0 | 0.00 | 0.00 | 0.00 | 87 | 1016.8 |
| 20260502150704 | 10 | 0 | 0.0 | 0.0 | 0.00 | 0.00 | 0.00 | 87 | 1016.9 |
| 20260502150150 | 10 | 0 | 0.0 | 0.0 | 0.00 | 0.00 | 0.00 | 87 | 1016.9 |
| 20260502130704 | 10 | 0 | 0.0 | 0.0 | 0.00 | 0.00 | 0.00 | 87 | 1016.8 |
| 20260502130151 | 10 | 0 | 0.0 | 0.0 | 0.00 | 0.00 | 0.00 | 87 | 1016.9 |
| 20260502123546 | 10 | 47 | 1.6 | 8.0 | 0.00 | 0.00 | 0.00 | 87 | 1016.8 |
| 20260502123033 | 10 | 0 | 0.0 | 0.0 | 0.00 | 0.00 | 0.00 | 87 | 1016.9 |
| 20260502122520 | 10 | 50 | 0.0 | 16.1 | 0.00 | 0.00 | 0.00 | 87 | 1016.7 |
| 20260502121454 | 10 | 95 | 3.2 | 16.1 | 0.00 | 0.00 | 0.00 | 87 | 1016.6 |
| 20260502120941 | 10 | 53 | 0.0 | 11.3 | 0.00 | 0.00 | 0.00 | 87 | 1016.7 |
| 20260502120428 | 10 | 54 | 1.6 | 11.3 | 0.00 | 0.00 | 0.00 | 87 | 1016.9 |
| 20260502115915 | 10 | 86 | 4.8 | 11.3 | 0.00 | 0.00 | 0.00 | 87 | 1017.1 |
| 20260502115402 | 10 | 0 | 0.0 | 8.0 | 0.00 | 0.00 | 0.00 | 86 | 1017.1 |
| 20260502114849 | 10 | 0 | 0.0 | 8.0 | 0.00 | 0.00 | 0.00 | 86 | 1017.1 |
| 20260502114336 | 10 | 0 | 0.0 | 0.0 | 0.00 | 0.00 | 0.00 | 86 | 1017.1 |
| 20260502113310 | 10 | 35 | 0.0 | 12.9 | 0.00 | 0.00 | 0.00 | 86 | 1017.1 |
| 20260502112757 | 10 | 88 | 0.0 | 12.9 | 0.00 | 0.00 | 0.00 | 86 | 1017.1 |
| 20260502112244 | 10 | 49 | 1.6 | 12.9 | 0.00 | 0.00 | 0.00 | 86 | 1017.2 |
| 20260502111731 | 10 | 54 | 1.6 | 8.0 | 0.00 | 0.00 | 0.00 | 86 | 1017.2 |
| 20260502111218 | 10 | 0 | 0.0 | 8.0 | 0.00 | 0.00 | 0.00 | 86 | 1017.2 |
| 20260502110705 | 10 | 85 | 0.0 | 8.0 | 0.00 | 0.00 | 0.00 | 86 | 1017.2 |
| 20260502110152 | 10 | 0 | 0.0 | 12.9 | 0.00 | 0.00 | 0.00 | 86 | 1017.3 |
| 20260502105639 | 10 | 56 | 0.0 | 12.9 | 0.00 | 0.00 | 0.00 | 86 | 1017.2 |
| 20260502105126 | 10 | 0 | 0.0 | 12.9 | 0.00 | 0.00 | 0.00 | 86 | 1017.2 |
| 20260502104613 | 10 | 0 | 0.0 | 11.3 | 0.00 | 0.00 | 0.00 | 86 | 1017.2 |
| 20260502104101 | 10 | 39 | 0.0 | 11.3 | 0.00 | 0.00 | 0.00 | 86 | 1017.2 |
| 20260502103547 | 10 | 0 | 0.0 | 4.8 | 0.00 | 0.00 | 0.00 | 86 | 1017.3 |
| 20260502103034 | 10 | 0 | 0.0 | 8.0 | 0.00 | 0.00 | 0.00 | 86 | 1017.3 |
| 20260502102522 | 10 | 0 | 0.0 | 8.0 | 0.00 | 0.00 | 0.00 | 86 | 1017.4 |
| 20260502102009 | 10 | 68 | 1.6 | 8.0 | 0.00 | 0.00 | 0.00 | 86 | 1017.4 |
| 20260502101455 | 10 | 0 | 0.0 | 0.0 | 0.00 | 0.00 | 0.00 | 86 | 1017.3 |
| 20260502100942 | 10 | 0 | 0.0 | 14.5 | 0.00 | 0.00 | 0.00 | 86 | 1017.4 |
| 20260502100429 | 10 | 71 | 0.0 | 14.5 | 0.00 | 0.00 | 0.00 | 86 | 1017.4 |
| 20260502091220 | 10 | 91 | 0.0 | 14.5 | 0.00 | 0.00 | 0.00 | 86 | 1017.7 |
| 20260502090706 | 10 | 74 | 0.0 | 14.5 | 0.00 | 0.00 | 0.00 | 86 | 1017.8 |
| 20260502090153 | 10 | 102 | 0.0 | 12.9 | 0.00 | 0.00 | 0.00 | 86 | 1017.7 |
| 20260502071220 | 10 | 114 | 0.0 | 8.0 | 0.00 | 0.00 | 0.00 | 86 | 1018.4 |
| 20260502070707 | 10 | 26 | 0.0 | 4.8 | 0.00 | 0.00 | 0.00 | 86 | 1018.4 |
| 20260502070155 | 10 | 0 | 0.0 | 14.5 | 0.00 | 0.00 | 0.00 | 86 | 1018.3 |
| 20260502065641 | 10 | 338 | 0.0 | 14.5 | 0.00 | 0.00 | 0.00 | 86 | 1018.3 |
| 20260502065128 | 10 | 98 | 4.8 | 14.5 | 0.00 | 0.00 | 0.00 | 86 | 1018.3 |
| 20260502064615 | 10 | 61 | 0.0 | 11.3 | 0.00 | 0.00 | 0.00 | 86 | 1018.4 |
| 20260502064102 | 10 | 92 | 6.4 | 11.3 | 0.00 | 0.00 | 0.00 | 86 | 1018.4 |
| 20260502063550 | 10 | 61 | 1.6 | 9.7 | 0.00 | 0.00 | 0.00 | 86 | 1018.3 |
| 20260502063036 | 10 | 60 | 0.0 | 9.7 | 0.00 | 0.00 | 0.00 | 86 | 1018.4 |
| 20260502062523 | 10 | 0 | 0.0 | 19.3 | 0.00 | 0.00 | 0.00 | 86 | 1018.4 |
| 20260502062010 | 10 | 138 | 0.0 | 19.3 | 0.00 | 0.00 | 0.00 | 86 | 1018.5 |
| 20260502061457 | 10 | 0 | 0.0 | 19.3 | 0.00 | 0.00 | 0.00 | 86 | 1018.5 |
| 20260502060944 | 10 | 49 | 3.2 | 11.3 | 0.00 | 0.00 | 0.00 | 86 | 1018.6 |
| 20260502060431 | 10 | 0 | 0.0 | 9.7 | 0.00 | 0.00 | 0.00 | 86 | 1018.6 |
| 20260502055918 | 10 | 18 | 0.0 | 9.7 | 0.00 | 0.00 | 0.00 | 86 | 1018.7 |
| 20260502055405 | 10 | 0 | 0.0 | 0.0 | 0.00 | 0.00 | 0.00 | 86 | 1018.7 |
| 20260502054852 | 10 | 112 | 0.0 | 12.9 | 0.00 | 0.00 | 0.00 | 86 | 1018.7 |
| 20260502054339 | 10 | 0 | 3.2 | 12.9 | 0.00 | 0.00 | 0.00 | 86 | 1018.7 |
| 20260502053313 | 10 | 0 | 0.0 | 17.7 | 0.00 | 0.00 | 0.00 | 86 | 1018.7 |
| 20260502052800 | 10 | 36 | 3.2 | 17.7 | 0.00 | 0.00 | 0.00 | 86 | 1018.6 |
| 20260502052247 | 10 | 89 | 9.7 | 17.7 | 0.00 | 0.00 | 0.00 | 86 | 1018.7 |
| 20260502051734 | 10 | 95 | 0.0 | 12.9 | 0.00 | 0.00 | 0.00 | 86 | 1018.7 |
| 20260502051221 | 10 | 93 | 4.8 | 16.1 | 0.00 | 0.00 | 0.00 | 86 | 1018.7 |
| 20260502050708 | 10 | 357 | 0.0 | 16.1 | 0.00 | 0.00 | 0.00 | 86 | 1018.7 |
| 20260502050155 | 10 | 330 | 1.6 | 16.1 | 0.00 | 0.00 | 0.00 | 86 | 1018.8 |
| 20260502045642 | 10 | 0 | 0.0 | 12.9 | 0.00 | 0.00 | 0.00 | 86 | 1018.8 |
| 20260502045129 | 10 | 93 | 0.0 | 12.9 | 0.00 | 0.00 | 0.00 | 87 | 1018.7 |
| 20260502044103 | 10 | 85 | 1.6 | 14.5 | 0.00 | 0.00 | 0.00 | 87 | 1018.7 |
| 20260502043550 | 10 | 77 | 3.2 | 14.5 | 0.00 | 0.00 | 0.00 | 87 | 1018.6 |
| 20260502043037 | 10 | 47 | 0.0 | 17.7 | 0.00 | 0.00 | 0.00 | 87 | 1018.7 |
| 20260502042524 | 10 | 124 | 0.0 | 17.7 | 0.00 | 0.00 | 0.00 | 87 | 1018.6 |
| 20260502041458 | 10 | 309 | 4.8 | 12.9 | 0.00 | 0.00 | 0.00 | 87 | 1018.4 |
| 20260502040945 | 10 | 0 | 0.0 | 12.9 | 0.00 | 0.00 | 0.00 | 87 | 1018.3 |
| 20260502040432 | 10 | 0 | 0.0 | 12.9 | 0.00 | 0.00 | 0.00 | 87 | 1018.3 |
| 20260502035919 | 10 | 0 | 0.0 | 12.9 | 0.00 | 0.00 | 0.00 | 87 | 1018.3 |
| 20260502035406 | 10 | 0 | 0.0 | 12.9 | 0.00 | 0.00 | 0.00 | 87 | 1018.3 |
| 20260502034853 | 10 | 0 | 1.6 | 8.0 | 0.00 | 0.00 | 0.00 | 87 | 1018.3 |
| 20260502034340 | 10 | 0 | 0.0 | 8.0 | 0.00 | 0.00 | 0.00 | 87 | 1018.3 |
| 20260502033827 | 10 | 67 | 3.2 | 11.3 | 0.00 | 0.00 | 0.00 | 87 | 1018.3 |
| 20260502033314 | 10 | 0 | 0.0 | 11.3 | 0.00 | 0.00 | 0.00 | 87 | 1018.3 |
| 20260502032801 | 10 | 49 | 0.0 | 11.3 | 0.00 | 0.00 | 0.00 | 87 | 1018.3 |
| 20260502032248 | 10 | 93 | 3.2 | 17.7 | 0.00 | 0.00 | 0.00 | 87 | 1018.3 |
| 20260502031735 | 10 | 75 | 8.0 | 17.7 | 0.00 | 0.00 | 0.00 | 87 | 1018.2 |
| 20260502031222 | 10 | 30 | 0.0 | 17.7 | 0.00 | 0.00 | 0.00 | 87 | 1018.2 |
| 20260502030709 | 10 | 98 | 0.0 | 12.9 | 0.00 | 0.00 | 0.00 | 87 | 1018.2 |
| 20260502030156 | 10 | 89 | 1.6 | 11.3 | 0.00 | 0.00 | 0.00 | 87 | 1018.2 |
| 20260502025645 | 10 | 0 | 0.0 | 11.3 | 0.00 | 0.00 | 0.00 | 87 | 1018.1 |
| 20260502025130 | 10 | 35 | 4.8 | 11.3 | 0.00 | 0.00 | 0.00 | 87 | 1018.1 |
| 20260502024617 | 10 | 357 | 0.0 | 9.7 | 0.00 | 0.00 | 0.00 | 87 | 1018.1 |
| 20260502024105 | 10 | 312 | 0.0 | 11.3 | 0.00 | 0.00 | 0.00 | 87 | 1018.1 |
| 20260502023551 | 10 | 135 | 1.6 | 11.3 | 0.00 | 0.00 | 0.00 | 87 | 1018.0 |
| 20260502023037 | 10 | 305 | 1.6 | 11.3 | 0.00 | 0.00 | 0.00 | 87 | 1018.0 |
| 20260502022525 | 10 | 49 | 1.6 | 11.3 | 0.00 | 0.00 | 0.00 | 87 | 1018.0 |
| 20260502022014 | 10 | 0 | 0.0 | 8.0 | 0.00 | 0.00 | 0.00 | 87 | 1018.0 |
| 20260502021459 | 10 | 106 | 0.0 | 11.3 | 0.00 | 0.00 | 0.00 | 87 | 1017.9 |
| 20260502020945 | 10 | 0 | 0.0 | 11.3 | 0.00 | 0.00 | 0.00 | 87 | 1017.9 |
| 20260502020432 | 10 | 357 | 0.0 | 11.3 | 0.00 | 0.00 | 0.00 | 87 | 1017.9 |
| 20260502015919 | 10 | 0 | 0.0 | 0.0 | 0.00 | 0.00 | 0.00 | 87 | 1017.9 |
| 20260502015406 | 11 | 0 | 0.0 | 14.5 | 0.00 | 0.00 | 0.00 | 87 | 1017.9 |
| 20260502014854 | 10 | 0 | 1.6 | 14.5 | 0.00 | 0.00 | 0.00 | 87 | 1017.9 |
| 20260502013830 | 11 | 0 | 0.0 | 8.0 | 0.00 | 0.00 | 0.00 | 87 | 1018.0 |
| 20260502013314 | 11 | 0 | 0.0 | 11.3 | 0.00 | 0.00 | 0.00 | 87 | 1017.9 |
| 20260502012801 | 11 | 84 | 0.0 | 11.3 | 0.00 | 0.00 | 0.00 | 87 | 1018.0 |
| 20260502012248 | 11 | 347 | 3.2 | 11.3 | 0.00 | 0.00 | 0.00 | 87 | 1017.9 |
| 20260502011736 | 11 | 4 | 0.0 | 9.7 | 0.00 | 0.00 | 0.00 | 87 | 1017.9 |
| 20260502010709 | 11 | 37 | 0.0 | 9.7 | 0.00 | 0.00 | 0.00 | 87 | 1018.0 |
| 20260502010156 | 11 | 327 | 0.0 | 11.3 | 0.00 | 0.00 | 0.00 | 87 | 1018.0 |
| 20260502005643 | 11 | 58 | 3.2 | 11.3 | 0.00 | 0.00 | 0.00 | 87 | 1018.1 |
| 20260502005130 | 11 | 117 | 1.6 | 11.3 | 0.00 | 0.00 | 0.00 | 87 | 1018.0 |
| 20260502004617 | 11 | 0 | 0.0 | 8.0 | 0.00 | 0.00 | 0.00 | 87 | 1018.1 |
| 20260502004104 | 11 | 340 | 0.0 | 8.0 | 0.00 | 0.00 | 0.00 | 86 | 1018.0 |
| 20260502003551 | 11 | 42 | 3.2 | 16.1 | 0.00 | 0.00 | 0.00 | 86 | 1018.0 |
| 20260502003038 | 11 | 7 | 0.0 | 16.1 | 0.00 | 0.00 | 0.00 | 86 | 1017.9 |
| 20260502002525 | 11 | 99 | 4.8 | 16.1 | 0.00 | 0.00 | 0.00 | 86 | 1018.0 |
| 20260502002013 | 11 | 58 | 1.6 | 14.5 | 0.00 | 0.00 | 0.00 | 86 | 1017.9 |
| 20260502001459 | 11 | 121 | 0.0 | 14.5 | 0.00 | 0.00 | 0.00 | 86 | 1017.9 |
| 20260502000947 | 11 | 88 | 0.0 | 11.3 | 0.00 | 0.00 | 0.00 | 86 | 1017.9 |
| 20260502000434 | 11 | 0 | 0.0 | 11.3 | 0.00 | 0.00 | 0.00 | 86 | 1017.9 |
| 20260501235920 | 11 | 47 | 3.2 | 11.3 | 0.00 | 0.00 | 0.00 | 86 | 1017.9 |
| 20260501235407 | 11 | 44 | 0.0 | 11.3 | 0.00 | 0.00 | 0.00 | 86 | 1017.9 |
| 20260501234854 | 11 | 350 | 6.4 | 9.7 | 0.00 | 0.00 | 0.00 | 86 | 1018.0 |
| 20260501234341 | 11 | 338 | 1.6 | 11.3 | 0.00 | 0.00 | 0.00 | 86 | 1018.1 |
| 20260501233829 | 11 | 81 | 3.2 | 11.3 | 0.00 | 0.00 | 0.00 | 86 | 1018.1 |
| 20260501233315 | 11 | 0 | 4.8 | 11.3 | 0.00 | 0.00 | 0.00 | 86 | 1018.0 |
| 20260501232802 | 11 | 7 | 8.0 | 16.1 | 0.00 | 0.00 | 0.00 | 86 | 1018.1 |
| 20260501232249 | 11 | 317 | 4.8 | 16.1 | 0.00 | 0.00 | 0.00 | 86 | 1018.1 |
| 20260501231223 | 11 | 309 | 4.8 | 14.5 | 0.00 | 0.00 | 0.00 | 86 | 1018.2 |
| 20260501230710 | 11 | 22 | 0.0 | 14.5 | 0.00 | 0.00 | 0.00 | 86 | 1018.3 |
| 20260501230157 | 11 | 315 | 8.0 | 14.5 | 0.00 | 0.00 | 0.00 | 86 | 1018.3 |
| 20260501225131 | 11 | 305 | 1.6 | 12.9 | 0.00 | 0.00 | 0.00 | 86 | 1018.5 |
| 20260501224618 | 11 | 336 | 0.0 | 16.1 | 0.00 | 0.00 | 0.00 | 86 | 1018.5 |
| 20260501224105 | 11 | 292 | 3.2 | 16.1 | 0.00 | 0.00 | 0.00 | 86 | 1018.6 |
| 20260501223552 | 11 | 326 | 6.4 | 12.9 | 0.00 | 0.00 | 0.00 | 86 | 1018.6 |
| 20260501223039 | 11 | 341 | 0.0 | 11.3 | 0.00 | 0.00 | 0.00 | 86 | 1018.7 |
| 20260501222527 | 11 | 65 | 3.2 | 11.3 | 0.00 | 0.00 | 0.00 | 86 | 1018.7 |
| 20260501222013 | 11 | 61 | 1.6 | 16.1 | 0.00 | 0.00 | 0.00 | 86 | 1018.8 |
| 20260501221500 | 11 | 340 | 1.6 | 16.1 | 0.00 | 0.00 | 0.00 | 86 | 1018.8 |
| 20260501220947 | 11 | 357 | 4.8 | 16.1 | 0.00 | 0.00 | 0.00 | 86 | 1018.8 |
| 20260501220434 | 11 | 327 | 4.8 | 11.3 | 0.00 | 0.00 | 0.00 | 86 | 1018.9 |
| 20260501215408 | 11 | 303 | 1.6 | 14.5 | 0.00 | 0.00 | 0.00 | 86 | 1018.8 |
| 20260501214855 | 11 | 25 | 0.0 | 14.5 | 0.00 | 0.00 | 0.00 | 86 | 1018.8 |
| 20260501214342 | 11 | 320 | 0.0 | 14.5 | 0.00 | 0.00 | 0.00 | 86 | 1018.8 |
| 20260501213829 | 11 | 0 | 6.4 | 11.3 | 0.00 | 0.00 | 0.00 | 86 | 1018.7 |
| 20260501213316 | 11 | 329 | 0.0 | 11.3 | 0.00 | 0.00 | 0.00 | 86 | 1018.7 |
| 20260501212803 | 11 | 354 | 0.0 | 12.9 | 0.00 | 0.00 | 0.00 | 86 | 1018.7 |
| 20260501212250 | 11 | 23 | 0.0 | 12.9 | 0.00 | 0.00 | 0.00 | 86 | 1018.8 |
| 20260501211737 | 11 | 357 | 6.4 | 12.9 | 0.00 | 0.00 | 0.00 | 85 | 1018.8 |
| 20260501211224 | 11 | 316 | 0.0 | 8.0 | 0.00 | 0.00 | 0.00 | 86 | 1018.8 |
| 20260501210711 | 11 | 326 | 0.0 | 11.3 | 0.00 | 0.00 | 0.00 | 86 | 1018.9 |
| 20260501210158 | 11 | 36 | 0.0 | 11.3 | 0.00 | 0.00 | 0.00 | 86 | 1018.8 |
| 20260501205646 | 11 | 11 | 4.8 | 11.3 | 0.00 | 0.00 | 0.00 | 86 | 1018.9 |
| 20260501205132 | 11 | 320 | 1.6 | 11.3 | 0.00 | 0.00 | 0.00 | 86 | 1018.8 |
| 20260501204106 | 11 | 8 | 1.6 | 11.3 | 0.00 | 0.00 | 0.00 | 86 | 1018.8 |
| 20260501203554 | 11 | 323 | 3.2 | 9.7 | 0.00 | 0.00 | 0.00 | 86 | 1018.8 |
| 20260501203040 | 11 | 312 | 1.6 | 9.7 | 0.00 | 0.00 | 0.00 | 86 | 1018.8 |
| 20260501202527 | 11 | 316 | 1.6 | 9.7 | 0.00 | 0.00 | 0.00 | 86 | 1018.8 |
| 20260501202015 | 11 | 312 | 0.0 | 9.7 | 0.00 | 0.00 | 0.00 | 86 | 1018.8 |
| 20260501201501 | 11 | 294 | 3.2 | 11.3 | 0.00 | 0.00 | 0.00 | 86 | 1018.8 |
| 20260501200948 | 11 | 324 | 1.6 | 11.3 | 0.00 | 0.00 | 0.00 | 86 | 1018.8 |
| 20260501200435 | 11 | 324 | 4.8 | 11.3 | 0.00 | 0.00 | 0.00 | 86 | 1018.8 |
| 20260501195922 | 11 | 340 | 1.6 | 12.9 | 0.00 | 0.00 | 0.00 | 86 | 1018.8 |
| 20260501195409 | 11 | 0 | 0.0 | 12.9 | 0.00 | 0.00 | 0.00 | 86 | 1018.9 |
| 20260501194856 | 11 | 292 | 0.0 | 12.9 | 0.00 | 0.00 | 0.00 | 86 | 1018.9 |
| 20260501194343 | 11 | 0 | 3.2 | 12.9 | 0.00 | 0.00 | 0.00 | 86 | 1018.8 |
| 20260501193830 | 11 | 348 | 1.6 | 11.3 | 0.00 | 0.00 | 0.00 | 86 | 1018.8 |
| 20260501193319 | 11 | 0 | 1.6 | 11.3 | 0.00 | 0.00 | 0.00 | 86 | 1018.8 |
| 20260501192804 | 11 | 105 | 4.8 | 9.7 | 0.00 | 0.00 | 0.00 | 87 | 1018.8 |
| 20260501192251 | 11 | 357 | 1.6 | 14.5 | 0.00 | 0.00 | 0.00 | 87 | 1019.0 |
| 20260501191738 | 11 | 19 | 0.0 | 14.5 | 0.00 | 0.00 | 0.00 | 87 | 1019.0 |
| 20260501191225 | 11 | 298 | 3.2 | 14.5 | 0.00 | 0.00 | 0.00 | 87 | 1019.0 |
| 20260501190712 | 11 | 326 | 0.0 | 9.7 | 0.00 | 0.00 | 0.00 | 87 | 1019.1 |
| 20260501190200 | 11 | 355 | 0.0 | 9.7 | 0.00 | 0.00 | 0.00 | 87 | 1019.2 |
| 20260501185647 | 11 | 327 | 3.2 | 9.7 | 0.00 | 0.00 | 0.00 | 87 | 1019.1 |
| 20260501185133 | 11 | 320 | 1.6 | 11.3 | 0.00 | 0.00 | 0.00 | 87 | 1019.2 |
| 20260501184622 | 11 | 329 | 0.0 | 11.3 | 0.00 | 0.00 | 0.00 | 87 | 1019.2 |
| 20260501184107 | 11 | 340 | 4.8 | 11.3 | 0.00 | 0.00 | 0.00 | 87 | 1019.1 |
| 20260501183554 | 11 | 345 | 3.2 | 12.9 | 0.00 | 0.00 | 0.00 | 88 | 1019.2 |
| 20260501183041 | 11 | 50 | 0.0 | 12.9 | 0.00 | 0.00 | 0.00 | 88 | 1019.1 |
| 20260501182528 | 11 | 341 | 0.0 | 12.9 | 0.00 | 0.00 | 0.00 | 88 | 1019.1 |
| 20260501181502 | 11 | 4 | 1.6 | 12.9 | 0.00 | 0.00 | 0.00 | 88 | 1019.0 |
| 20260501180949 | 11 | 11 | 3.2 | 12.9 | 0.00 | 0.00 | 0.00 | 88 | 1019.0 |
| 20260501180436 | 11 | 36 | 0.0 | 9.7 | 0.00 | 0.00 | 0.00 | 89 | 1018.9 |
| 20260501175923 | 11 | 324 | 0.0 | 9.7 | 0.00 | 0.00 | 0.00 | 89 | 1018.9 |
| 20260501175410 | 11 | 282 | 3.2 | 9.7 | 0.00 | 0.00 | 0.00 | 89 | 1019.0 |
| 20260501174857 | 11 | 320 | 1.6 | 9.7 | 0.00 | 0.00 | 0.00 | 89 | 1019.0 |
| 20260501174344 | 11 | 337 | 0.0 | 9.7 | 0.00 | 0.00 | 0.00 | 89 | 1018.9 |
| 20260501173831 | 11 | 0 | 0.0 | 3.2 | 0.00 | 0.00 | 0.00 | 89 | 1019.0 |
| 20260501173318 | 11 | 0 | 0.0 | 0.0 | 0.00 | 0.00 | 0.00 | 89 | 1018.9 |
| 20260501172805 | 11 | 0 | 0.0 | 9.7 | 0.00 | 0.00 | 0.00 | 89 | 1019.0 |
| 20260501172252 | 11 | 0 | 0.0 | 9.7 | 0.00 | 0.00 | 0.00 | 89 | 1018.9 |